STARLINK-1593, 46119

Orbit data source: Space-Track

STARLINK-1593, 46119 is a payload satellite owned by SpaceX/Seattle (US) in LEO that was launched on Tue, 18 Aug 2020 UTC via an FALCON 9 launch vehicle from the Air Force Eastern Test Range (AFETR). Payload-class satellites include a variety of spacecraft equipped with specific instruments for various scientific and technological missions. These include communications satellites like Starlink; space stations such as the ISS; scientific satellites like the Hubble; Earth observation satellites from companies like Planet Labs, Umbra, and HawkEye 360; GPS; miniature CubeSats for education and research; and military/defense satellites.

Loading next visibility...
Identifier
46119, 2020-057C
Orbit
LEO
Country
Flag of USUS
Related business
Manufacturer
SpaceX/Seattle
Mission
Partially operational Commercial Communications
Bus & Motor
STARLINK, Unknown motor
Mass
260 kg wet, ~248 kg dry
Launch date (UTC)
2020-08-18 (6 years ago)
Launch vehicle
FALCON 9
Launch site
Air Force Eastern Test Range (AFETR)
Object type
Payload
Rocket body
Debris
Shape & HBR
Box + 1 Pan, 10.1 m
Radar Cross Section
13.562 m², Large (>1 m²)

Expand to show TLE details & history
Last TLE update: 14 hours ago

TLE from 14 hours ago
0 STARLINK-1593
1 46119U 20057C   26072.00002315  .00197667  00000-0  12393-2 0  9999
2 46119  53.0475 253.8827 0001409 174.1164 353.0053 15.75684211  5969
Epoch: 2026-03-13T00:00Z
TLE epoch observation values (Epoch: 2026-03-13T00:00:02.000Z)
Latitude
10.24522°
Longitude
-104.53767°
Altitude
341.897 km
Speed
7.706 km/s
True Right ascension
04h 24m 27s
True Declination
10° 10' 53"
Sunlit
Object was in daylight at epoch
Visualization orbit readout
Latitude
Unknown
Longitude
Unknown
Altitude
Unknown
Speed
Unknown
Apparent Right ascension
Unknown
Apparent Declination
Unknown
Sunlit
N/A
Visualization observer readout
Local Sidereal Time
18:40:59
Azimuth
Unknown
Elevation
Unknown
Doppler factor
Unknown
Orbital elements
Apogee altitude
343.912 km
Perigee altitude
342.018 km
Semi-major axis
6,721.102 km
Eccentricity
0.00014
Inclination
53.0475°
RAAN
253.8827°
Arg. of periapsis
174.1164°
True anomaly
353.00333°
Mean anomaly
353.0053°
Eccentric anomaly
353.00432°
Mean motion
3.93897 °/min
Orbital period
91.39 mins
BSTAR
0.0012393
Loading maneuver chart data...
Computing Atmospheric mass density...
Loading historical data...
Loading historical data...
Loading historical data...
Loading historical data...
Loading historical data...
Loading historical data...
Loading historical data...

Documentation

Showing up to 5 results
|